Погода в Лесных Полянах

Россия / Кировская область     59°00′04″N   52°25′00″E
темп.,
°C
ветер,
м/с
пор.,
м/с
влажн.,
%
обл.,
%
осадки,
мм/ч
давл.,
гПа
погр.,
м
25 февраля, чт
чт2500:00−28ссз001000 0.0 103219
03:00−28юз11992 0.0 103219
06:00−29ю129716 0.0 103119
09:00−23ю249315 0.0 1029175
12:00−17ююв35880 0.0 1027372
15:00−17ююв37870 0.0 1025431
18:00−21юв38950 0.0 1023190
21:00−23ююв39950 0.0 1023227
26 февраля, пт
пт2600:00−25ююв37925 0.0 1022187
03:00−26юв39946 0.0 1023209
06:00−25ююв3895100 0.0 1022242
09:00−22ююв379698 0.0 1021297
12:00−18ююв4992100 0.0 1019471
15:00−17ююв51091100 0.0 1017537
18:00−20юв51294100 0.0 1015480
21:00−20юв51393100 0.0 1013488
27 февраля, сб
сб2700:00−19юв51492100 0.0 1010523
03:00−18юв51491100 0.0 1008566
06:00−17вюв51292100 0.1 1006617
09:00−16вюв51192100 0.3 1006601
12:00−13в4992100 0.3 1006646
15:00−14в4891100 0.5 1007616
18:00−16в4993100 0.1 1007504
21:00−19всв399595 0.1 1009287
28 февраля, вс
вс2800:00−20всв399782 0.0 1009266
03:00−22св389883 0.0 1011209
06:00−24св379879 0.0 1011174
09:00−21св369559 0.0 1013317
12:00−16св379073 0.0 1013526
15:00−15ссв379186 0.1 1014595
18:00−18ссв2398100 0.1 101688
21:00−21ссв239989 0.1 101825
1 марта, пн
пн100:00−22с2210018 0.0 101920
03:00−23ссз2210041 0.0 102020
06:00−24сз1110067 0.0 102020
09:00−18зюз239543 0.0 1019167
12:00−12юз369239 0.0 1016368
15:00−11ююз499035 0.0 1013429
18:00−13ююз51193100 0.1 1009420
21:00−12юз51294100 0.8 1005513